This demonstration page uses our WeatherBlox Daily Observations layout. Learn more.

Left ArrowRight Arrow

31.31129, -92.44514

Hourly Observations for August 4, 2022

Temp ( °F °C ) Dew Point ( °F °C ) Humidity (%) Winds ( mph kmh ) Pressure ( in mb ) Visibility ( mi km ) Precip ( " mm )
12:53 am 00:53 Cloudy 76 24.4 73 22.8 91 91 SSE 6 9 29.97 1015 7 11 0.00 0.00
1:49 am 01:49 Cloudy with Mist and Fog 75 24 73 23 94 94 S 3 6 29.95 1014 2 3 0.00 0.00
1:50 am 01:50 Cloudy with Mist and Fog 76 24.4 74 23.3 94 94 S 3 6 29.96 1015 2 3 0.00 0.00
2:53 am 02:53 Mostly Cloudy with Mist and Fog 77 25 75 23.9 94 94 S 3 6 29.95 1014 1 2 0.00 0.00
3:09 am 03:09 Mostly Cloudy with Mist and Fog 77 25 75 23.9 94 94 S 3 6 29.95 1014 1 1 0.00 0.00
3:53 am 03:53 Mostly Cloudy with Mist and Fog 77 25 75 23.9 94 94 S 3 6 29.95 1014 1 2 0.00 0.00
4:53 am 04:53 Mostly Cloudy with Mist and Fog 77 25 75 23.9 94 94 SSE 5 7 29.96 1015 1 2 0.00 0.00
5:53 am 05:53 Cloudy with Mist and Fog 77 25 76 24.4 96 96 S 3 6 29.98 1015 2 2 0.00 0.00
6:12 am 06:12 Mostly Cloudy with Mist and Fog 77 25 76 24.4 96 96 SSE 5 7 29.97 1015 1 1 0.00 0.00
6:22 am 06:22 Mostly Cloudy with Mist and Fog 77 25 76 24.4 96 96 SSE 5 7 29.97 1015 1 2 0.00 0.00
6:37 am 06:37 Cloudy with Mist and Fog 77 25 76 24.4 96 96 SSE 3 6 29.97 1015 3 5 0.00 0.00
6:43 am 06:43 Cloudy with Mist and Fog 77 25 76 24.4 96 96 SSE 3 6 29.98 1015 2 3 0.00 0.00
6:53 am 06:53 Cloudy with Mist and Fog 78 25.6 76 24.4 93 93 SSE 5 7 29.99 1016 1 2 0.00 0.00
7:53 am 07:53 Cloudy with Mist and Fog 78 25.6 76 24.4 93 93 SSE 5 7 30.00 1016 2 2 0.00 0.00
8:35 am 08:35 Cloudy with Mist and Fog 78 25.6 76 24.4 93 93 Calm 30.00 1016 3 5 0.00 0.00
8:53 am 08:53 Cloudy with Mist and Fog 79 26.1 76 24.4 90 90 Calm 30.00 1016 4 6 0.00 0.00
9:32 am 09:32 Cloudy 81 27.2 77 25 88 88 SSW 3 6 29.99 1015 7 11 0.00 0.00
9:53 am 09:53 Cloudy 81 27.2 77 25 88 88 S 3 6 29.99 1016 7 11 0.00 0.00
10:22 am 10:22 Cloudy 83 28.3 77 25 82 82 S 3 6 30.00 1016 7 11 0.00 0.00
10:53 am 10:53 Cloudy 85 29.4 78 25.6 80 80 SE 6 9 30.01 1016 9 14 0.00 0.00
11:22 am 11:22 Mostly Cloudy 87 30.6 78 25.6 75 75 Calm 29.99 1016 9 14 0.00 0.00
11:53 am 11:53 Mostly Cloudy 89 31.7 78 25.6 70 70 SW 3 6 30.01 1016 10 16 0.00 0.00
12:02 pm 12:02 Partly Cloudy 90 32.2 77 25 66 66 VRB 3 6 29.99 1016 10 16 0.00 0.00
12:37 pm 12:37 Sunny with Nearby Thunderstorms 90 32.2 76 24.4 63 63 VRB 5 7 29.98 1015 10 16 0.00 0.00
12:53 pm 12:53 Partly Cloudy 91 32.8 75 23.9 59 59 Calm 29.98 1015 10 16 0.00 0.00
1:53 pm 13:53 Mostly Sunny 91 32.8 75 23.9 59 59 Calm 29.96 1015 10 16 0.00 0.00
2:53 pm 14:53 Partly Cloudy 92 33.3 76 24.4 60 60 VRB 3 6 29.95 1014 10 16 0.00 0.00
3:53 pm 15:53 Mostly Sunny 93 33.9 76 24.4 58 58 E 6 9 29.94 1014 10 16 0.00 0.00
4:16 pm 16:16 Mostly Cloudy with Nearby Thunderstorms 87 30.6 73 22.8 63 63 SSE 18 30 29.95 1014 10 16 0.00 0.00
4:30 pm 16:30 Mostly Cloudy with Nearby Thunderstorms 86 30 72 22.2 63 63 S 10 17 29.96 1014 10 16 0.00 0.00
4:40 pm 16:40 Cloudy 84 28.9 72 22.2 67 67 SSW 9 15 29.96 1014 10 16 0.00 0.00
4:44 pm 16:44 Cloudy with Nearby Thunderstorms 83 28.3 71 21.7 67 67 SSW 7 11 29.96 1014 10 16 0.00 0.00
4:53 pm 16:53 Cloudy with Nearby Thunderstorms 83 28.3 71 21.7 67 67 SW 8 13 29.97 1015 10 16 0.00 0.00
5:00 pm 17:00 Cloudy with Nearby Thunderstorms 82 27.8 71 21.7 69 69 SW 13 20 29.97 1015 10 16 0.00 0.00
5:17 pm 17:17 Cloudy with Thunderstorms 80 26.7 72 22.2 76 76 SSE 10 17 29.97 1015 10 16 0.01 0.25
5:32 pm 17:32 Mostly Cloudy with Nearby Thunderstorms 80 26.7 73 22.8 79 79 SSW 9 15 29.97 1015 10 16 0.01 0.25
5:45 pm 17:45 Mostly Cloudy 81 27.2 73 22.8 77 77 S 9 15 29.97 1015 10 16 0.01 0.25
5:53 pm 17:53 Mostly Sunny 80 26.7 73 22.8 79 79 S 8 13 29.98 1015 10 16 0.01 0.25
6:53 pm 18:53 Sunny 80 26.7 73 22.8 79 79 Calm 29.96 1015 10 16 0.00 0.00
7:53 pm 19:53 Sunny 80 26.7 72 22.2 76 76 SSE 8 13 29.96 1014 10 16 0.00 0.00
8:53 pm 20:53 Clear 80 26.7 72 22.2 76 76 SE 9 15 29.98 1015 10 16 0.00 0.00
9:53 pm 21:53 Clear 79 26.1 73 22.8 82 82 SSE 6 9 29.98 1015 10 16 0.00 0.00
10:53 pm 22:53 Clear 77 25 73 22.8 88 88 SSE 3 6 29.98 1015 10 16 0.00 0.00
11:53 pm 23:53 Clear 76 24.4 73 22.8 91 91 SSE 5 7 30.00 1016 10 16 0.00 0.00

Powered by AerisWeather